Clinton, British Columbia

3:40 AM PDT on October 22, 2017 (GMT -0700)
Clinton

Weather History for CWCL - May, 2014

Change the Weather History Date:

Friday, May 23, 2014

  Actual Average Record
Temperature  
Mean Temperature 58 °F -  
Max Temperature 67 °F 62 °F 82 °F (2001)
Min Temperature 50 °F 39 °F 30 °F (1997)
Degree Days  
Heating Degree Days 6    
Growing Degree Days 8 (Base 50)    
Moisture  
Dew Point 40 °F    
Average Humidity 52    
Maximum Humidity 71    
Minimum Humidity 22    
Precipitation  
Precipitation 0.02 in - - ()
Sea Level Pressure  
Sea Level Pressure 29.91 in    
Wind  
Wind Speed 7 mph ()    
Max Wind Speed 15 mph    
Max Gust Speed 23 mph    
Visibility 9.0 miles    
Events      
Averages and records for this station are not official NWS values.
T = Trace of Precipitation, MM = Missing Value Source: Averaged Metar Reports

Daily Weather History Graph

Daily Weather History Graph

Search for Another Location

Airport or City:

Trip Planner

Search our weather history database for the weather conditions in past years. The results will help you decide how hot, cold, wet, or windy it might be!

Date:

Astronomy

May. 23, 2014 Rise Set
Actual Time 5:04 AM PDT 9:01 PM PDT
Civil Twilight 4:22 AM PDT 9:44 PM PDT
Nautical Twilight 3:22 AM PDT 10:45 PM PDT
Astronomical Twilight 1:30 AM PDT 12:47 AM PDT
Moon 2:39 AM PDT (5/23) 3:26 PM PDT (5/23)
Length of Visible Light 17h 22m
Length of Day
15h 56m
Waning Crescent, 26% of the Moon is Illuminated
May 23
Waning Crescent
May 28
New
Jun 5
First Quarter
Jun 12
Full
Jun 19
Last Quarter

Hourly Weather History & Observations

Time (PDT) Temp. Dew Point Humidity Pressure Visibility Wind Dir Wind Speed Gust Speed Precip Events Conditions
12:00 AM 51.8 °F 42.8 °F 71% 29.96 in 9.0 mi SW 4.6 mph - N/A   Unknown
1:00 AM 55.4 °F 41.0 °F 58% 29.95 in 9.0 mi South 6.9 mph 17.3 mph N/A   Unknown
2:00 AM 53 °F 41 °F 53% 29.93 in 9 mi SSW 3.5 mph - -  
2:00 AM 51.8 °F 41.0 °F 67% 29.93 in 9.0 mi SSW 5.8 mph - N/A   Unknown
3:00 AM 51.8 °F 42.8 °F 71% 29.93 in 9.0 mi SSW 2.3 mph - N/A   Unknown
4:00 AM 53.6 °F 41.0 °F 62% 29.92 in 9.0 mi SSE 6.9 mph - N/A   Unknown
5:00 AM 51 °F 42 °F 61% 29.92 in 9 mi SSE 6.9 mph - -  
5:00 AM 51.8 °F 41.0 °F 67% 29.92 in 9.0 mi SSE 6.9 mph - N/A   Unknown
6:00 AM 51.8 °F 41.0 °F 67% 29.91 in 9.0 mi SSW 5.8 mph - N/A   Unknown
7:00 AM 51.8 °F 42.8 °F 71% 29.90 in 9.0 mi South 6.9 mph - N/A   Unknown
8:00 AM 54 °F 43 °F 57% 29.89 in 9 mi South 5.8 mph - -  
8:00 AM 53.6 °F 42.8 °F 67% 29.89 in 9.0 mi SSE 8.1 mph - N/A   Unknown
10:00 AM 57.2 °F 46.4 °F 67% 29.88 in 9.0 mi South 8.1 mph 17.3 mph N/A   Unknown
11:00 AM 57 °F 46 °F 56% 29.89 in 9 mi South 8.1 mph - -  
11:00 AM 57.2 °F 46.4 °F 67% 29.89 in 9.0 mi South 6.9 mph - N/A   Unknown
12:00 PM 59.0 °F 44.6 °F 59% 29.89 in 9.0 mi South 4.6 mph - N/A   Unknown
1:00 PM 60.8 °F 41.0 °F 48% 29.88 in 9.0 mi SW 8.1 mph 18.4 mph N/A   Unknown
2:00 PM 64 °F 40 °F 30% 29.87 in 9 mi SW 12.7 mph - -  
2:00 PM 64.4 °F 41.0 °F 42% 29.87 in 9.0 mi SW 15.0 mph - N/A   Unknown
3:00 PM 66.2 °F 39.2 °F 37% 29.87 in 9.0 mi SW 11.5 mph 20.7 mph N/A   Unknown
4:00 PM 66.2 °F 35.6 °F 32% 29.86 in 9.0 mi SW 12.7 mph 21.9 mph N/A   Unknown
5:00 PM 65 °F 36 °F 22% 29.87 in 9 mi SW 12.7 mph - -  
5:00 PM 64.4 °F 35.6 °F 34% 29.87 in 9.0 mi SW 12.7 mph 23.0 mph N/A   Unknown
6:00 PM 62.6 °F 35.6 °F 37% 29.86 in 9.0 mi SW 11.5 mph 20.7 mph N/A   Unknown
7:00 PM 60.8 °F 33.8 °F 36% 29.87 in 9.0 mi WSW 8.1 mph 17.3 mph N/A   Unknown
8:00 PM 57 °F 34 °F 30% 29.91 in 9 mi WSW 9.2 mph - -  
8:00 PM 57.2 °F 33.8 °F 41% 29.91 in 9.0 mi SW 11.5 mph 19.6 mph N/A   Unknown
9:00 PM 53.6 °F 35.6 °F 51% 29.93 in 9.0 mi WSW 8.1 mph - N/A   Unknown
10:00 PM 53.6 °F 35.6 °F 51% 29.95 in 9.0 mi SW 6.9 mph - N/A   Unknown
11:00 PM 52 °F 35 °F 41% 29.97 in 9 mi SSW 5.8 mph - -  
11:00 PM 51.8 °F 35.6 °F 54% 29.97 in 9.0 mi SSW 8.1 mph - N/A   Unknown